• In Österreich
  • Länderverzeichnis
  • Für 7 Tage
  • Wassertemperatur
  • Satellitenkarten
  • Wetterkarte
  • News
  • Widgets
  • user-avatar
    Anmelden

    Stündliche Wetter Grado

    Heute, 25 Februar, Samstag

    Zeit Temperatur Niederschläge Wind Luftdruck Luftfeuchtigkeit
    00:00 +4°C° 0,7 mm 7 m/S 761 mmHg 89%
    01:00 +5°C° 0 mm 5 m/S 762 mmHg 89%
    02:00 +5°C° 0 mm 5 m/S 763 mmHg 88%
    03:00 +3°C° 0 mm 5 m/S 764 mmHg 88%
    04:00 +3°C° 0 mm 6 m/S 764 mmHg 87%
    05:00 +2°C° 0 mm 5 m/S 765 mmHg 87%
    06:00 +2°C° 0 mm 5 m/S 766 mmHg 86%
    07:00 +1°C° 0 mm 5 m/S 766 mmHg 86%
    08:00 +3°C° 0 mm 5 m/S 766 mmHg 82%
    09:00 +5°C° 0 mm 5 m/S 767 mmHg 77%
    10:00 +6°C° 0 mm 5 m/S 767 mmHg 72%
    11:00 +7°C° 0 mm 4 m/S 767 mmHg 69%
    12:00 +8°C° 0 mm 4 m/S 767 mmHg 65%
    13:00 +10°C° 0 mm 4 m/S 767 mmHg 62%
    14:00 +10°C° 0 mm 3 m/S 767 mmHg 63%
    15:00 +10°C° 0 mm 3 m/S 767 mmHg 64%
    16:00 +10°C° 0 mm 3 m/S 767 mmHg 65%
    17:00 +8°C° 0 mm 3 m/S 767 mmHg 71%
    18:00 +5°C° 0 mm 3 m/S 767 mmHg 76%
    19:00 +4°C° 0 mm 3 m/S 768 mmHg 81%
    20:00 +3°C° 0 mm 3 m/S 768 mmHg 82%
    21:00 +3°C° 0 mm 3 m/S 768 mmHg 82%
    22:00 +3°C° 0 mm 3 m/S 768 mmHg 83%
    23:00 +2°C° 0 mm 3 m/S 768 mmHg 82%

    Morgen, 26 Februar, Sonntag

    Zeit Temperatur Niederschläge Wind Luftdruck Luftfeuchtigkeit
    00:00 +2°C° 0 mm 3 m/S 768 mmHg 82%
    01:00 +3°C° 0 mm 2 m/S 768 mmHg 82%
    02:00 +3°C° 0 mm 2 m/S 767 mmHg 81%
    03:00 +3°C° 0 mm 2 m/S 767 mmHg 81%
    04:00 +2°C° 0 mm 2 m/S 766 mmHg 80%
    05:00 +2°C° 0 mm 2 m/S 766 mmHg 78%
    06:00 +2°C° 0 mm 2 m/S 766 mmHg 77%
    07:00 +3°C° 0 mm 1 m/S 766 mmHg 76%
    08:00 +6°C° 0 mm 1 m/S 766 mmHg 70%
    09:00 +8°C° 0 mm 1 m/S 765 mmHg 64%
    10:00 +10°C° 0 mm 0 m/S 765 mmHg 58%
    11:00 +11°C° 0 mm 1 m/S 765 mmHg 57%
    12:00 +12°C° 0 mm 1 m/S 764 mmHg 55%
    13:00 +13°C° 0 mm 1 m/S 764 mmHg 54%
    14:00 +13°C° 0 mm 1 m/S 764 mmHg 57%
    15:00 +13°C° 0 mm 1 m/S 763 mmHg 60%
    16:00 +13°C° 0 mm 1 m/S 763 mmHg 63%
    17:00 +11°C° 0 mm 1 m/S 763 mmHg 69%
    18:00 +9°C° 0 mm 1 m/S 764 mmHg 75%
    19:00 +6°C° 0 mm 1 m/S 764 mmHg 81%
    20:00 +6°C° 0 mm 1 m/S 764 mmHg 80%
    21:00 +6°C° 0 mm 1 m/S 764 mmHg 80%
    22:00 +6°C° 0 mm 1 m/S 764 mmHg 80%
    23:00 +6°C° 0 mm 1 m/S 764 mmHg 78%

    übermorgen, 27 Februar, Montag

    Zeit Temperatur Niederschläge Wind Luftdruck Luftfeuchtigkeit
    00:00 +6°C° 0 mm 1 m/S 763 mmHg 77%
    01:00 +7°C° 0 mm 1 m/S 763 mmHg 75%
    02:00 +6°C° 0 mm 1 m/S 763 mmHg 75%
    03:00 +6°C° 0 mm 1 m/S 763 mmHg 75%
    04:00 +6°C° 0 mm 1 m/S 763 mmHg 75%
    05:00 +6°C° 0 mm 1 m/S 762 mmHg 79%
    06:00 +6°C° 0 mm 1 m/S 762 mmHg 82%
    07:00 +6°C° 0 mm 1 m/S 762 mmHg 85%
    08:00 +8°C° 0 mm 1 m/S 762 mmHg 80%
    09:00 +10°C° 0 mm 1 m/S 762 mmHg 76%
    10:00 +12°C° 0 mm 1 m/S 762 mmHg 71%
    11:00 +13°C° 0 mm 1 m/S 761 mmHg 71%
    12:00 +13°C° 0 mm 1 m/S 761 mmHg 71%
    13:00 +13°C° 0 mm 2 m/S 760 mmHg 71%
    14:00 +13°C° 0 mm 2 m/S 760 mmHg 72%
    15:00 +13°C° 0 mm 2 m/S 760 mmHg 73%
    16:00 +12°C° 0 mm 2 m/S 759 mmHg 74%
    17:00 +10°C° 0 mm 2 m/S 759 mmHg 80%
    18:00 +8°C° 0 mm 2 m/S 759 mmHg 85%
    19:00 +7°C° 0 mm 2 m/S 760 mmHg 91%
    20:00 +6°C° 0 mm 2 m/S 760 mmHg 92%
    21:00 +6°C° 0 mm 2 m/S 760 mmHg 92%
    22:00 +6°C° 0 mm 2 m/S 760 mmHg 93%
    23:00 +6°C° 0 mm 2 m/S 759 mmHg 91%

    28 Februar, Dienstag

    Zeit Temperatur Niederschläge Wind Luftdruck Luftfeuchtigkeit
    00:00 +7°C° 0 mm 2 m/S 759 mmHg 89%
    01:00 +7°C° 0 mm 2 m/S 759 mmHg 88%
    02:00 +8°C° 0 mm 3 m/S 758 mmHg 89%
    03:00 +8°C° 0 mm 3 m/S 758 mmHg 90%
    04:00 +8°C° 0 mm 3 m/S 757 mmHg 91%
    05:00 +8°C° 0,1 mm 3 m/S 757 mmHg 92%
    06:00 +8°C° 0,1 mm 3 m/S 757 mmHg 93%
    07:00 +7°C° 0,1 mm 4 m/S 756 mmHg 94%
    08:00 +8°C° 0,1 mm 4 m/S 756 mmHg 93%
    09:00 +8°C° 0,1 mm 4 m/S 756 mmHg 93%
    10:00 +10°C° 0,1 mm 4 m/S 756 mmHg 92%
    11:00 +9°C° 0,2 mm 5 m/S 755 mmHg 93%
    12:00 +9°C° 0,2 mm 5 m/S 754 mmHg 93%
    13:00 +9°C° 0,2 mm 6 m/S 753 mmHg 93%
    14:00 +9°C° 0,4 mm 6 m/S 753 mmHg 93%
    15:00 +9°C° 0,4 mm 7 m/S 752 mmHg 93%
    16:00 +10°C° 0,4 mm 7 m/S 751 mmHg 94%
    17:00 +10°C° 0,5 mm 8 m/S 751 mmHg 94%
    18:00 +10°C° 0,5 mm 8 m/S 751 mmHg 94%
    19:00 +10°C° 0,5 mm 9 m/S 750 mmHg 94%
    20:00 +9°C° 0,2 mm 8 m/S 750 mmHg 94%
    21:00 +9°C° 0,2 mm 8 m/S 750 mmHg 94%
    22:00 +9°C° 0,2 mm 7 m/S 750 mmHg 94%
    23:00 +8°C° 0,3 mm 7 m/S 750 mmHg 95%

    1 März, Mittwoch

    Zeit Temperatur Niederschläge Wind Luftdruck Luftfeuchtigkeit
    00:00 +8°C° 0,3 mm 6 m/S 751 mmHg 96%
    01:00 +8°C° 0,3 mm 5 m/S 751 mmHg 96%
    02:00 +7°C° 0,7 mm 5 m/S 752 mmHg 95%
    03:00 +7°C° 0,7 mm 4 m/S 753 mmHg 94%
    04:00 +6°C° 0,7 mm 4 m/S 754 mmHg 93%
    05:00 +6°C° 0,1 mm 4 m/S 756 mmHg 92%
    06:00 +5°C° 0,1 mm 3 m/S 758 mmHg 91%
    07:00 +4°C° 0,1 mm 3 m/S 759 mmHg 89%
    08:00 +7°C° 0 mm 3 m/S 760 mmHg 82%
    09:00 +9°C° 0 mm 2 m/S 761 mmHg 75%
    10:00 +12°C° 0 mm 2 m/S 762 mmHg 67%
    11:00 +12°C° 0 mm 2 m/S 762 mmHg 63%
    12:00 +13°C° 0 mm 2 m/S 763 mmHg 58%
    13:00 +14°C° 0 mm 2 m/S 763 mmHg 53%
    14:00 +13°C° 0 mm 2 m/S 763 mmHg 53%
    15:00 +13°C° 0 mm 1 m/S 763 mmHg 52%
    16:00 +13°C° 0 mm 1 m/S 762 mmHg 51%
    17:00 +11°C° 0 mm 1 m/S 763 mmHg 57%
    18:00 +9°C° 0 mm 1 m/S 763 mmHg 63%
    19:00 +8°C° 0 mm 1 m/S 763 mmHg 69%
    20:00 +7°C° 0 mm 1 m/S 764 mmHg 70%
    21:00 +7°C° 0 mm 1 m/S 764 mmHg 71%
    22:00 +6°C° 0 mm 2 m/S 764 mmHg 71%
    23:00 +6°C° 0 mm 2 m/S 764 mmHg 73%

    2 März, Donnerstag

    Zeit Temperatur Niederschläge Wind Luftdruck Luftfeuchtigkeit
    00:00 +6°C° 0 mm 2 m/S 764 mmHg 74%
    01:00 +5°C° 0 mm 2 m/S 763 mmHg 76%
    02:00 +5°C° 0 mm 2 m/S 763 mmHg 76%
    03:00 +5°C° 0 mm 2 m/S 763 mmHg 76%
    04:00 +4°C° 0 mm 3 m/S 763 mmHg 77%
    05:00 +5°C° 0 mm 2 m/S 763 mmHg 78%
    06:00 +5°C° 0 mm 2 m/S 763 mmHg 79%
    07:00 +5°C° 0 mm 2 m/S 764 mmHg 80%
    08:00 +7°C° 0 mm 2 m/S 764 mmHg 76%
    09:00 +11°C° 0 mm 1 m/S 764 mmHg 71%
    10:00 +13°C° 0 mm 1 m/S 765 mmHg 66%
    11:00 +14°C° 0 mm 1 m/S 765 mmHg 64%
    12:00 +15°C° 0 mm 1 m/S 765 mmHg 62%
    13:00 +16°C° 0 mm 1 m/S 765 mmHg 60%
    14:00 +15°C° 0 mm 1 m/S 765 mmHg 63%
    15:00 +15°C° 0 mm 1 m/S 764 mmHg 66%
    16:00 +15°C° 0 mm 1 m/S 764 mmHg 69%
    17:00 +13°C° 0 mm 1 m/S 765 mmHg 75%
    18:00 +12°C° 0 mm 1 m/S 765 mmHg 81%
    19:00 +10°C° 0 mm 1 m/S 765 mmHg 87%
    20:00 +10°C° 0 mm 1 m/S 765 mmHg 88%
    21:00 +9°C° 0 mm 1 m/S 765 mmHg 89%
    22:00 +9°C° 0 mm 1 m/S 765 mmHg 90%
    23:00 +8°C° 0 mm 1 m/S 765 mmHg 91%
    Mehr zeigen